Location: Goheenville
(40.9070°N, 79.3720°W)
Time: 14:01:03
(UTC-04:00)

Daily predictions for brighter satellites

Satellite Brightness Start Highest point End
(mag) Time Altitude Azimuth Time Altitude Azimuth Time Altitude Azimuth
Resurs 01 Rocket 2.3 20:28:35 10° S 20:32:57 59° W 20:37:21 10° NNW
Cosmos 1934 Rocket 4.1 20:27:29 10° SSE 20:33:21 52° E 20:39:21 10° NNE
Cosmos 1461 4.2 20:30:17 10° N 20:33:42 25° NE 20:37:01 10° ESE
Meteor 2-4 Rocket 3.8 20:28:08 10° N 20:33:59 75° E 20:39:53 10° SSE
Lacrosse 5 rocket 2.9 20:31:26 10° NNW 20:34:13 19° NNE 20:36:56 10° ENE
Cosmos 1400 Rocket 4.5 20:31:34 10° SSW 20:35:28 41° WNW 20:39:21 10° N
Cosmos 1315 Rocket 3.1 20:31:51 10° SSW 20:35:49 73° W 20:39:53 10° N
Cosmos 2278 4.1 20:34:10 10° S 20:39:22 39° ESE 20:44:37 10° NE
Cosmos 1697 Rocket 4.3 20:37:28 10° SE 20:40:10 14° E 20:42:50 10° ENE
Tiangong 1 1.0 20:38:15 10° WSW 20:41:21 86° NNW 20:44:27 10° ENE
DELTA 2 R/B (1) 3.6 20:37:51 10° W 20:43:26 79° S 20:49:00 10° E
CZ-4 DEB 4.2 20:42:04 11° ESE 20:44:19 21° ENE 20:46:45 10° NNE
USA 186 1.7 20:45:17 10° SSE 20:48:23 56° ENE 20:51:20 10° N
H-2A R/B 2.7 20:46:18 10° SSE 20:50:09 75° ENE 20:54:05 10° N
OTV 4 0.9 20:47:20 10° WSW 20:50:12 47° S 20:52:22 16° ESE
Meteor 1-23 Rocket 4.3 20:45:25 10° N 20:51:04 86° W 20:56:46 10° S
CZ-4B DEB 3.6 20:48:24 10° S 20:51:37 54° W 20:54:51 10° NNW
Cosmos 2369 4.0 20:46:53 10° S 20:52:14 44° ESE 20:57:37 10° NE
Delta 2 Rocket 4.5 20:48:08 10° WSW 20:53:31 47° S 20:57:38 14° ESE
ATLAS CENTAUR R/B 4.0 20:49:32 10° WSW 20:53:58 30° NW 20:58:20 10° NNE
EP 2 4.3 20:51:32 10° SW 20:54:07 83° NW 20:56:54 10° NNE
Cosmos 1939 Rocket 4.1 20:52:33 13° ESE 20:55:19 25° ENE 20:58:46 10° NNE
Cosmos 1544 Rocket 3.5 20:51:03 10° S 20:55:25 88° E 20:59:51 10° N
Iridium 4 Rocket 4.1 20:50:51 10° NNE 20:55:32 33° E 20:59:34 11° SE
OAO 2 Rocket 4.3 20:56:37 10° SW 21:00:57 29° SSE 21:03:59 17° ESE
Cosmos 1980 Rocket 3.9 21:02:28 12° E 21:02:28 12° E 21:04:01 10° ENE
CZ-2D R/B 3.7 21:01:18 10° S 21:05:06 63° W 21:08:59 10° NNW
NOSS 2-1 (D) 4.4 21:05:25 10° SW 21:09:11 50° NW 21:13:31 10° NNE
NOSS 2-1 (C) 4.4 21:06:25 10° SW 21:10:12 50° NW 21:14:33 10° NNE
Hubble Space Telescope 3.0 21:08:52 10° SW 21:10:40 13° S 21:12:19 10° SSE
ERS-1 Rocket 3.2 21:07:31 13° SE 21:11:47 52° ENE 21:16:39 10° N
Cosmos 1821 Rocket 4.5 21:07:26 10° SSW 21:13:28 63° W 21:19:32 10° N
Cosmos 1605 Rocket 4.0 21:09:56 10° S 21:16:17 80° E 21:22:34 10° N
Cosmos 1346 Rocket 3.0 21:13:29 10° NNW 21:17:25 71° W 21:21:21 10° S
RESURS DK-1 4.2 21:19:31 10° N 21:22:18 17° NE 21:23:22 16° ENE
Cosmos 2227 Rocket 2.2 21:22:29 10° NNW 21:28:11 89° WSW 21:32:23 19° SSE
YAOGAN 11 4.1 21:26:24 16° SSE 21:30:06 89° NE 21:34:36 10° NNW
ALOS 4.0 21:28:34 10° SSW 21:32:44 32° W 21:36:57 10° NNW
Cosmos 468 Rocket 4.3 21:29:32 15° SSE 21:33:27 40° ESE 21:38:14 10° NE
Cosmos 1500 3.2 21:34:20 35° SSE 21:35:35 52° E 21:39:16 10° NNE
Cosmos 1825 Rocket 4.5 21:33:53 10° NNE 21:37:48 30° ENE 21:38:16 29° E
BREEZE-M DEB (TANK) 4.0 21:22:13 10° SW 21:39:07 68° SSE 21:42:56 18° ENE
Cosmos 1814 Rocket 4.4 21:37:52 25° SSE 21:40:26 40° ESE 21:45:24 10° NE
Cosmos 1656 3.6 21:35:10 10° S 21:40:43 64° ESE 21:46:15 10° NNE
Cosmos 2082 3.8 21:35:10 10° NNW 21:40:48 76° WSW 21:44:33 22° SSE
Cosmos 2297 Rocket 2.1 21:38:22 10° NNW 21:44:03 88° ENE 21:47:09 28° SSE
USA 215 4.2 21:42:02 19° E 21:46:12 39° NNE 21:52:09 10° NW
Lacrosse 5 2.8 21:45:08 10° NNW 21:49:50 37° NE 21:51:36 28° ENE
H-2A R/B 1.9 21:49:23 48° SE 21:50:22 68° ENE 21:54:29 10° N
Cosmos 1340 3.9 21:48:46 10° NNE 21:51:29 28° NE 21:51:29 28° NE
SPOT 5 3.0 21:52:32 39° SE 21:54:16 64° ENE 21:59:08 10° N
deb Chang Zheng 4 3.5 21:50:32 10° NNE 21:55:00 75° ESE 21:57:05 31° S
Cosmos 1626 Rocket 4.2 21:51:15 10° NNW 21:55:33 53° W 21:58:22 20° SSW
Cosmos 1515 4.0 21:54:10 10° NNW 21:58:00 66° W 21:59:10 41° SSW
Cosmos 858 Rocket 4.5 21:53:07 10° NNW 21:58:24 68° ENE 21:59:55 45° SE
Cosmos 2298 Rocket 3.9 21:53:42 10° NNW 21:59:02 84° ENE 22:00:56 42° SSE
Cosmos 1975 3.9 21:56:34 10° SSW 22:00:30 45° W 22:04:28 10° N
Cosmos 1459 Rocket 3.8 21:59:01 23° S 22:02:54 75° E 22:09:00 10° N
Cosmos 1758 Rocket 4.4 22:01:21 10° N 22:04:48 34° ENE 22:04:48 34° ENE
Cosmos 1743 2.9 22:06:26 60° NE 22:06:26 60° NE 22:09:52 10° NNE
Nimbus 7 Rocket 4.4 22:00:40 10° NNE 22:06:46 86° ESE 22:12:29 12° SSW
H-2A R/B 3.3 22:10:13 24° ENE 22:10:13 24° ENE 22:13:55 10° NNE
YAOGAN 6 2.9 22:12:12 59° NNE 22:12:12 59° NNE 22:15:20 10° N
Cosmos 1461 4.2 22:09:20 10° NW 22:12:53 30° WSW 22:13:43 27° SW
Cosmos 1066 Rocket 4.4 22:07:49 10° NNW 22:13:26 73° W 22:16:06 33° S
Lacrosse 5 rocket 1.5 22:10:07 10° NW 22:13:22 54° W 22:13:22 54° W
Envisat 3.6 22:11:14 26° SSW 22:13:54 53° W 22:18:53 10° NNW
Cosmos 2098 Rocket 4.3 22:14:27 44° SE 22:16:02 52° E 22:22:02 10° NNE
GEOS 3 Rocket 4.3 22:11:55 10° NE 22:15:07 35° ENE 22:15:07 35° ENE
MetOp-A 4.0 22:15:54 50° SSE 22:17:22 88° WSW 22:22:46 10° NNW
Tiangong 1 2.8 22:14:55 10° WNW 22:16:48 32° WNW 22:16:48 32° WNW
Cosmos 1937 Rocket 3.4 22:14:57 10° NNW 22:20:15 84° ENE 22:21:02 65° SSE
Cosmos 1697 Rocket 2.7 22:17:41 10° SSW 22:23:21 79° WNW 22:29:02 10° NNE
Cosmos 2058 Rocket 4.1 22:25:44 35° NE 22:25:44 35° NE 22:28:37 10° NNE
Cosmos 1802 Rocket 4.0 22:20:59 29° S 22:24:28 88° W 22:30:57 10° N
Cosmos 2150 Rocket 4.2 22:21:09 10° NNW 22:26:14 64° WSW 22:27:17 51° SSW
OTV 4 3.6 22:23:44 10° WSW 22:23:53 11° WSW 22:23:53 11° WSW
SL-16 R/B 4.3 22:29:58 13° NE 22:29:58 13° NE 22:30:43 10° NE
SPOT 1/Viking Rocket 3.4 22:28:06 72° ESE 22:28:29 77° ENE 22:33:43 10° N
DELTA 2 R/B (1) 3.6 22:24:18 10° W 22:29:46 60° SSW 22:29:48 60° SSW
NOAA 11 4.0 22:29:44 68° ESE 22:30:15 74° ENE 22:35:44 10° N
SL-08 R/B 4.4 22:30:44 57° SSE 22:32:02 75° E 22:38:15 10° N
ASTEX 1 3.4 22:27:17 10° N 22:32:18 78° W 22:33:04 63° SSW
Cosmos 2084 3.9 22:29:57 10° NW 22:33:22 57° WNW 22:33:22 57° WNW
SL-08 RB Rocket 4.0 22:35:12 59° NNE 22:35:12 59° NNE 22:39:12 10° N
Cosmos 990 Rocket 3.8 22:32:28 10° NNW 22:37:45 88° ENE 22:37:48 88° ESE
Cosmos 1606 Rocket 3.9 22:38:13 65° NW 22:38:13 65° NW 22:42:13 10° N
Terra 3.0 22:40:15 31° NE 22:40:15 31° NE 22:43:25 10° N
Cosmos 1980 Rocket 2.1 22:44:07 66° SSW 22:44:58 86° WNW 22:50:42 10° NNE
CZ-4B R/B 3.7 22:40:15 10° NNE 22:44:01 57° NNE 22:44:01 57° NNE
Cosmos 2016 Rocket 4.1 22:43:28 43° SSW 22:45:35 72° W 22:51:46 10° N
ARGOS 3.1 22:49:32 76° WSW 22:49:39 76° WSW 22:55:04 10° NNW
Cosmos 1125 Rocket 4.2 22:55:13 10° NNW 22:59:15 47° NNE 22:59:15 47° NNE
RESURS DK-1 4.0 22:56:39 10° NW 22:59:18 33° WNW 22:59:18 33° WNW
Cosmos 1763 Rocket 3.9 23:04:52 58° NW 23:04:52 58° NW 23:09:30 10° NNE
Tsikada Rocket 4.1 23:05:52 10° NNW 23:12:17 72° W 23:12:34 71° WSW
Cosmos 2322 Rocket 3.5 23:18:34 29° NE 23:18:34 29° NE 23:21:18 10° NNE
Cosmos 2263 Rocket 3.3 23:10:40 10° N 23:14:41 33° NNE 23:14:41 33° NNE
Cosmos 841 Rocket 4.4 23:24:39 46° NW 23:24:39 46° NW 23:29:21 10° N
Milstar 3 Cent rocket 4.4 23:13:28 10° W 23:26:27 35° SSW 23:26:27 35° SSW
USA 215 3.3 23:29:23 72° W 23:29:23 72° W 23:35:27 10° NW
Lacrosse 5 3.5 23:28:05 10° WNW 23:30:48 28° WNW 23:30:48 28° WNW
H-2A R/B 3.6 23:50:52 30° WNW 23:50:52 30° WNW 23:53:49 10° NNW
